Regional Weather Roundup
Issued by NWS

Home | Current Version | Previous Version | Graphics & Text | Print | Product List | Glossary On
Versions: 1 2 3 4 5 6 7 8 9 10 11 12 13 14 15 16 17 18 19 20 21 22 23 24 25 26 27 28 29 30 31 32 33 34 35 36 37 38 39 40 41 42 43 44 45 46 47 48 49 50
000
ASUS43 KLMK 021402
RWRKY
KENTUCKY REGIONAL WEATHER ROUNDUP
NATIONAL WEATHER SERVICE LOUISVILLE KY
1000 AM EDT TUE JUN 02 2015

NOTE "FAIR" INDICATES FEW OR NO CLOUDS BELOW 12,000 FEET
WITH NO SIGNIFICANT WEATHER AND/OR OBSTRUCTIONS TO VISIBILITY.

KYZ001>023-026-027-061>063-070>075-021500-
WESTERN AND SOUTH CENTRAL KENTUCKY

CITY           SKY/WX    TMP DP  RH WIND       PRES   REMARKS
PADUCAH        CLOUDY    62  57  83 NE6       30.12R
HENDERSON      CLOUDY    59  54  82 NE5       30.13S
OWENSBORO      CLOUDY    60  56  87 NE7       30.14R FOG
HOPKINSVILLE   CLOUDY    59  57  93 N7        30.12R
BOWLING GREEN  CLOUDY    59  55  87 NE7       30.12S
GLASGOW        NOT AVBL
$$

KYZ024-025-028>034-038-045-046-053-021500-
NORTH CENTRAL KENTUCKY

CITY           SKY/WX    TMP DP  RH WIND       PRES   REMARKS
LOUISVILLE/SDF CLOUDY    58  53  84 E6        30.14S
LOUISVILLE/LOU CLOUDY    57  52  83 NE6       30.15R
FORT KNOX      CLOUDY    57  53  86 N7        30.12R
$$

KYZ035>037-039>044-047>052-055>060-089>105-021500-
NORTHEAST KENTUCKY

CITY           SKY/WX    TMP DP  RH WIND       PRES   REMARKS
LEXINGTON      CLOUDY    56  53  90 NE9       30.13S
COVINGTON      CLOUDY    54  49  83 N6        30.16R
FRANKFORT      CLOUDY    55  51  86 NE6       30.13S
$$

KYZ054-064>069-076>088-106>120-021500-
SOUTHEAST KENTUCKY

CITY           SKY/WX    TMP DP  RH WIND       PRES   REMARKS
JACKSON        CLOUDY    56  54  93 CALM      30.12S
LONDON         CLOUDY    59  53  80 N6        30.11R
SOMERSET       NOT AVBL
MIDDLESBORO    NOT AVBL
MONTICELLO     CLOUDY    58  58 100 NE7       30.14R FOG
$$



USA.gov is the U.S. government's official web portal to all federal, state and local government web resources and services.